This demonstration page uses our WeatherBlox Daily Observations layout. Learn more.

39.08367, -84.50855

Hourly Observations for May 24, 2019

Temp ( °F °C ) Dew Point ( °F °C ) Humidity (%) Winds ( mph kmh ) Pressure ( in mb ) Visibility ( mi km ) Precip ( " mm )
12:45 am 00:45 Mostly Cloudy with Mist and Fog 66 18.9 66 18.9 100 100 SW 5 7 30.06 1018 1 1.609344 0 0
12:51 am 00:51 Partly Cloudy with Mist and Fog 64 18 64 18 100 100 SW 5 7 30.06 1018 2 3.218688 0 0
12:53 am 00:53 Partly Cloudy with Mist and Fog 66 18.9 65 18.3 96 96 WSW 3 6 30.06 1018 2 3.218688 0 0
1:10 am 01:10 Clear with Mist and Fog 66 18.9 65 18.3 96 96 Calm 30.06 1018 0.75 1.207008 0 0
1:19 am 01:19 Partly Cloudy with Fog 66 18.9 65 18.3 96 96 NNE 6 9 30.06 1018 0.5 0.804672 0 0
1:26 am 01:26 Mostly Cloudy with Mist and Fog 67 19.4 67 19.4 100 100 ENE 6 9 30.06 1018 2 3.218688 0 0
1:34 am 01:34 Mostly Cloudy with Mist and Fog 67 19.4 67 19.4 100 100 SE 3 6 30.06 1018 4 6.437376 0 0
1:48 am 01:48 Mostly Cloudy with Mist and Fog 68 20 66 19 94 94 Calm 30.06 1018 5 8.04672 0 0
1:53 am 01:53 Cloudy with Mist and Fog 68 20 67 19.4 96 96 Calm 30.06 1018 5 8.04672 0 0
2:33 am 02:33 Mostly Cloudy with Mist and Fog 67 19.4 67 19.4 100 100 Calm 30.06 1018 3 4.828032 0 0
2:42 am 02:42 Mostly Cloudy with Mist and Fog 67 19.4 66 18.9 97 97 Calm 30.06 1018 2 3.218688 0 0
2:48 am 02:48 Partly Cloudy with Mist and Fog 66 19 66 19 100 100 Calm 30.06 1018 3 4.828032 0 0
2:53 am 02:53 Partly Cloudy with Mist and Fog 67 19.4 67 19.4 100 100 Calm 30.06 1018 2.5 4.02336 0 0
2:58 am 02:58 Partly Cloudy with Mist and Fog 67 19.4 66 18.9 97 97 Calm 30.06 1018 0.75 1.207008 0 0
3:04 am 03:04 Partly Cloudy with Fog 67 19.4 66 18.9 97 97 Calm 30.06 1018 0.25 0.402336 0 0
3:12 am 03:12 Mostly Cloudy with Fog 66 18.9 66 18.9 100 100 Calm 30.06 1018 0.25 0.402336 0 0
3:31 am 03:31 Cloudy with Fog 65 18.3 65 18.3 100 100 Calm 30.06 1018 0.5 0.804672 0 0
3:47 am 03:47 Cloudy with Mist and Fog 66 19 66 19 100 100 NNE 3 6 30.06 1018 1 1.609344 0 0
3:53 am 03:53 Cloudy with Mist and Fog 66 18.9 66 18.9 100 100 Calm 30.06 1018 2.5 4.02336 0 0
4:01 am 04:01 Cloudy with Mist and Fog 66 18.9 65 18.3 96 96 Calm 30.06 1018 0.75 1.207008 0 0
4:15 am 04:15 Cloudy with Fog 67 19.4 66 18.9 97 97 Calm 30.06 1018 0.25 0.402336 0 0
4:44 am 04:44 Cloudy with Mist and Fog 67 19.4 67 19.4 100 100 Calm 30.06 1018 0.75 1.207008 0 0
4:51 am 04:51 Cloudy with Mist and Fog 66 19 66 19 100 100 Calm 30.06 1018 2 3.218688 0 0
4:53 am 04:53 Cloudy with Mist and Fog 67 19.4 66 18.9 97 97 Calm 30.06 1018 2.5 4.02336 0 0
5:04 am 05:04 Cloudy with Mist and Fog 66 18.9 66 18.9 100 100 Calm 30.06 1018 1 1.609344 0 0
5:12 am 05:12 Mostly Cloudy with Fog 66 18.9 66 18.9 100 100 Calm 30.06 1018 0.5 0.804672 0 0
5:20 am 05:20 Mostly Cloudy with Fog 67 19.4 66 18.9 97 97 Calm 30.09 1019 0.25 0.402336 0 0
5:53 am 05:53 Mostly Cloudy with Fog 66 18.9 66 18.9 100 100 Calm 30.09 1019 0.25 0.402336 0 0
6:53 am 06:53 Mostly Cloudy with Fog 66 18.9 66 18.9 100 100 Calm 30.09 1019 0.25 0.402336 0 0
7:53 am 07:53 Mostly Cloudy with Fog 68 20 68 20 100 100 Calm 30.12 1020 0.25 0.402336 0 0
8:34 am 08:34 Mostly Cloudy with Mist and Fog 70 21.1 69 20.6 97 97 Calm 30.12 1020 0.75 1.207008 0 0
8:41 am 08:41 Cloudy with Mist and Fog 70 21.1 69 20.6 97 97 Calm 30.12 1020 1.25 2.01168 0 0
8:46 am 08:46 Cloudy with Mist and Fog 70 21.1 69 20.6 97 97 Calm 30.12 1020 3 4.828032 0 0
8:53 am 08:53 Cloudy with Mist and Fog 70 21.1 69 20.6 97 97 Calm 30.12 1020 4 6.437376 0 0
9:53 am 09:53 Cloudy with Light Rain 72 22.2 69 20.6 91 91 Calm 30.12 1020 7 11.265408 0.001 0.001
10:53 am 10:53 Sunny 77 25 71 21.7 82 82 VRB 3 6 30.09 1019 10 16.09344 0.001 0.001
11:53 am 11:53 Partly Cloudy 82 27.8 73 22.8 74 74 SW 9 15 30.09 1019 10 16.09344 0 0
12:53 pm 12:53 Sunny 85 29.4 72 22.2 65 65 WSW 7 11 30.09 1019 10 16.09344 0 0
1:53 pm 13:53 Mostly Sunny 85 29.4 69 20.6 59 59 W 9 15 30.09 1019 10 16.09344 0 0
2:53 pm 14:53 Partly Cloudy 87 30.6 69 20.6 55 55 WSW 12 19 30.06 1018 10 16.09344 0 0
3:53 pm 15:53 Mostly Sunny 87 30.6 67 19.4 51 51 W 16 26 30.06 1018 10 16.09344 0 0
4:53 pm 16:53 Mostly Sunny 87 30.6 67 19.4 51 51 WSW 7 11 30.06 1018 10 16.09344 0 0
5:53 pm 17:53 Sunny 87 30.6 65 18.3 48 48 WSW 15 24 30.06 1018 10 16.09344 0 0
6:53 pm 18:53 Sunny 86 30 67 19.4 53 53 SW 8 13 30.03 1017 10 16.09344 0 0
7:53 pm 19:53 Sunny 81 27.2 68 20 65 65 S 8 13 30 1016 10 16.09344 0 0
8:53 pm 20:53 Clear 74 23.3 69 20.6 85 85 SSW 6 9 30 1016 10 16.09344 0 0
9:53 pm 21:53 Clear 71 21.7 67 19.4 87 87 SSW 7 11 30 1016 10 16.09344 0 0
10:53 pm 22:53 Clear 71 21.7 67 19.4 87 87 Calm 30 1016 10 16.09344 0 0
11:53 pm 23:53 Clear 68 20 66 18.9 93 93 VRB 3 6 30 1016 8 12.874752 0 0

Powered by AerisWeather